Погода в Елабуге

Погода в Елабуге : погода сейчас, прогноз погоды и архив. Всё, что Вы хотите узнать о погоде в Елабуге!

Поиск расширенной информации на нашем сайте:

Другие новости

Новости СМИ2

Главная страница сайта

Новости сайта

02.10.2013

Напоминаем, что на нашем новом сайте вы можете получить высокодетализированные прогнозы погоды по пунктам России, СНГ и мира (включающие важные для авиации метеовеличины, такие как направление и скорость ветра, видимость, явления погоды, количество и форма облачности, нижняя и верхняя граница облачности), а также ознакомиться с разнообразными материалами по авиационной метеорологии и подборкой полезных ссылок на эту тему.

Сайт Метеоцентр.Азия посвящён разработке технологий оптимизации авиаметеорологического обслуживания, включая проектирование и перспективное создание нескольких автоматизированных авиаметеорологических систем:
- система выпуска высокодетальных прогностических карт явлений погоды для нижнего воздушного пространства по России и ближнему зарубежью;
- система верификации прогнозов TAF (выпускаемых синоптиками официальных АМСГ РФ и ближнего зарубежья) и AUTOTAF (выпускаемых сайтом Метеоцентр.Азия) - выявление ошибок, онлайн-сопоставление с фактической погодой METAR, автоматическое внесение коррективов в прогнозы при резком отклонении фактической погоды от прогноза, подсчёт оправдываемости прогнозов по элементам и в целом;
- система обработки, анализа и отображения авиаметеорологической информации для применения провайдерами метеорологической информации.


Погода в Елабуге - сегодня

Время (UTC), дата Ветер
(°,м/с) 
Видим.   Явления Облачность Т
(°С)
Тd
(°С)
f(%) Тe
(°С)
Pmin
(гПа)
dP
(гПа)
Po
(мм)
O2
(г/м3)
Тmin Tmax R s Состояние
почвы
00 22.01.17 тихо ()   20000 м    ясно 
-28 -30.8 77 -28  1025.5  0.4  763  344  -29.8         
03 22.01.17 030 (СВ) 20000 м    ясно 
-21.5 -24.1 79 -22  1024.6  -0.6  762  335           
06 22.01.17 020 (С) 20000 м    ясно 
-19 -24 65 -22  1023.7  -0.9  761  331           
09 22.01.17 280 (З) 20000 м    1/0 средняя 
[Ac trans]
-22.2 -24.9 79 -23  1024.1  0.4  762  336    -18.8       
12 22.01.17 230 (ЮЗ) 20000 м    3/0 средняя, верхняя 
[Ac trans|Ci fib]
-21.4 -24.3 77 -22  1024  0.1  762  335           
15 22.01.17 150 (ЮВ) 20000 м    9/0 средняя, верхняя 
[Ac trans|Ci fib]
-23.6 -25.8 82 -28  1024.6  0.6  762  338           
18 22.01.17 150 (ЮВ) 4000 м  слаб. снег  10/0 средняя, верхняя 
[Ac trans|Cs]
-26.3 -29 78 -33  1024.4  -0.3  762  342           
21 22.01.17 160 (Ю) 4000 м  слаб. снег  8/0 верхняя 
[Cs]
-26.2 -28.9 78 -33  1024.4  762  341  -26.7    0.0  23  равномерный
сухой снег
100% 
00 23.01.17 170 (Ю) 20000 м  {снег}  1/0 верхняя 
[Ci fib]
-25.8 -28.5 78 -31  1024.9  0.6  762  341           
03 23.01.17 170 (Ю) 20000 м    ясно 
-20.7 -25.1 68 -24  1024.4  -0.4  762  334           
06 23.01.17 280 (З) 20000 м    ясно 
-19.3 -25.2 59 -20  1024  -0.4  762  332           
09 23.01.17 190 (Ю) 20000 м    ясно 
-23.7 -26.9 75 -27  1024.8  0.6  762  338    -18.7       
12 23.01.17 210 (ЮЗ) 20000 м    ясно 
-23.5 -26.9 74 -27  1024.9  0.2  762  338           
15 23.01.17 160 (Ю) 20000 м    ясно 
-25.6 -28.2 79 -32  1024.7  -0.3  762  341           
18 23.01.17 160 (Ю) 20000 м    ясно 
-25.7 -28.3 79 -32  1024.4  -0.3  762  341           
21 23.01.17 160 (Ю) 20000 м    ясно 
-26.5 -29.3 77 -33  1024.3  -0.1  762  342  -26.9      23  равномерный
сухой снег
100% 
00 24.01.17 170 (Ю) 20000 м    ясно 
-25.7 -28.7 76 -32  1025.4  1.1  763  341  -26.9         
03 24.01.17 180 (Ю) 20000 м    ясно 
-18.4 -24.7 58 -23  1024.7  -0.4  762  331           
06 24.01.17 180 (Ю) 20000 м    ясно 
-17.2 -24.2 54 -22  1024.4  -0.3  762  329           
09 24.01.17 190 (Ю) 20000 м    ясно 
-19.3 -24.5 63 -24  1025.1  0.6  762  332    -16.9       
12 24.01.17 160 (Ю) 20000 м    ясно 
-20.4 -24.6 69 -27  1024  -1.2  762  333           
15 24.01.17 170 (Ю) 5{11}  20000 м    ясно 
-19.1 -23.4 69 -25  1023.4  -0.5  761  331           
18 24.01.17 170 (Ю) 20000 м    ясно 
-19.5 -23.1 73 -25  1023.6  0.2  761  332           
21 24.01.17 180 (Ю) 20000 м    ясно 
-20 -23.3 75 -25  1023.2  -0.4  761  333  -20.5      23  равномерный
сухой снег
100% 
00 25.01.17 180 (Ю) 20000 м    ясно 
-19.5 -23.4 71 -25  1024.5  1.3  762  332           
Время (UTC), дата Ветер
(°,м/с) 
Видим.   Явления Облачность Т
(°С)
Тd
(°С)
f(%) Тe
(°С)
Pmin
(гПа)
dP
(гПа)
Po
(мм)
O2
(г/м3)
Тmin Tmax R s Состояние
почвы

Для получения пояснительной информации подведите курсор к названию столбца.

ПОГОДА в Елабуге - архив

Всё, что Вы хотите узнать о погоде в Елабуге - удобно и подробно!

Выберите нужную дату (начиная с 1 января 2015* года) и нажмите кнопку "Найти".
Будут отображены архивные сводки погоды по пункту Елабуга, начиная с указанной даты.


Отображать данные в формате CSV (для использования в таблицах Excel)


Внимание! Наш архив погоды предназначен исключительно для личного некоммерческого использования в познавательных целях. Если Вам необходимы официальные справки о состоянии погоды (для производственных, юридических, коммерческих и т.п. целей), обращайтесь в органы Росгидромета.

*Примечание: данная дата относится к архиву по метеостанциям СССР (Россия, СНГ, Балтия).
Архив по метеостанциям Зарубежной Европы и Азии (кроме Китая) хранится 10 дней, по другим регионам земного шара (Китай, Африка, Америка, Австралия, Океания) - 1 день.

Елабуга - район местоположения метеостанции


Название, широта, долгота, высота метеостанции:
Елабуга 48.8°ш. 135.9°д. 58 м над ур. моря [Российская Федерация]

Дополнительная информация

В oтличие oт бoльшинства пoгoдных сайтoв мы публикуем пoдрoбную метеoинфoрмацию в детальнoм прoфессиoнальнoм фoрмате.

Характеристики температуры и влажнoсти вoздуха измеряются на высoте 2 м в тени вдали oт зданий и деревьев.
Скoрoсть ветра измеряется на высoте 10 м (на урoвне рoста челoвека скoрoсть ветра ниже в 1.5-2 раза). Если метеoстанция нахoдится в гoрoде или в лесу, тo скoрoсть ветра занижена на 2-4 м/с пo сравнению с oткрытым местoм. Скoрoсть ветра над акватoриями крупных рек и oзёр, а также на вершинах хoлмoв на 2-5 м/с выше, чем в oбычных услoвиях.
Атмoсфернoе давление в разных тoчках местнoсти мoжет значительнo oтличаться oт давления на метеoстанции, в зависимoсти oт услoвий рельефа (при пoдъёме на 10 м давление пoнижается примернo на 1 мм рт.ст.).